Location: ??????
(30.0081°N, 31.2109°E)
Time: 09:17:50
(UTC+00:00)

Cosmos 2218 Rocket - Pass Details

Date: 03 March 2021
Orbit: 955 x 1007 km, 82.9° (Epoch: 15 April)

Event Time Altitude Azimuth Distance (km) Brightness Sun altitude
Rises 16:58:01 0° 165° (SSE) 3,710 6.9 -14.3°
Reaches altitude 10° 17:00:40 10° 158° (SSE) 2,768 6.1 -14.9°
Maximum altitude 17:06:35 42° 90° (E) 1,410 4.4 -16.1°
Drops below altitude 10° 17:12:31 10° 22° (NNE) 2,785 6.2 -17.4°
Sets 17:15:11 0° 15° (NNE) 3,735 6.9 -18.0°
